Year,Month,Day,Hour,Minute,Value (Times are PST for temperature in C)
2006,04,05,00,00,6.70
2006,04,05,00,01,6.80
2006,04,05,00,02,6.80
2006,04,05,00,03,6.80
2006,04,05,00,04,6.80
2006,04,05,00,05,6.80
2006,04,05,00,06,6.80
2006,04,05,00,07,6.80
2006,04,05,00,08,6.70
2006,04,05,00,09,6.70
2006,04,05,00,10,6.70
2006,04,05,00,11,6.60
2006,04,05,00,12,6.60
2006,04,05,00,13,6.50
2006,04,05,00,14,6.40
2006,04,05,00,15,6.40
2006,04,05,00,16,6.40
2006,04,05,00,17,6.40
2006,04,05,00,18,6.40
2006,04,05,00,19,6.40
2006,04,05,00,20,6.30
2006,04,05,00,21,6.40
2006,04,05,00,22,6.40
2006,04,05,00,23,6.40
2006,04,05,00,24,6.40
2006,04,05,00,25,6.40
2006,04,05,00,26,6.60
2006,04,05,00,27,6.60
2006,04,05,00,28,6.60
2006,04,05,00,29,6.60
2006,04,05,00,30,6.60
2006,04,05,00,31,6.60
2006,04,05,00,32,6.60
2006,04,05,00,33,6.60
2006,04,05,00,34,6.60
2006,04,05,00,35,6.60
2006,04,05,00,36,6.40
2006,04,05,00,37,6.40
2006,04,05,00,38,6.30
2006,04,05,00,39,6.30
2006,04,05,00,40,6.20
2006,04,05,00,41,6.20
2006,04,05,00,42,6.20
2006,04,05,00,43,6.20
2006,04,05,00,44,6.20
2006,04,05,00,45,6.20
2006,04,05,00,46,6.20
2006,04,05,00,47,6.20
2006,04,05,00,48,6.20
2006,04,05,00,49,6.10
2006,04,05,00,50,6.10
2006,04,05,00,51,6.10
2006,04,05,00,52,6.00
2006,04,05,00,53,6.00
2006,04,05,00,54,5.90
2006,04,05,00,55,5.90
2006,04,05,00,56,5.90
2006,04,05,00,57,5.90
2006,04,05,00,58,5.90
2006,04,05,00,59,5.90
2006,04,05,01,00,6.00
2006,04,05,01,01,6.00
2006,04,05,01,02,6.10
2006,04,05,01,03,6.10
2006,04,05,01,04,6.10
2006,04,05,01,05,6.10
2006,04,05,01,06,6.10
2006,04,05,01,07,6.00
2006,04,05,01,08,6.00
2006,04,05,01,09,6.00
2006,04,05,01,10,6.00
2006,04,05,01,11,6.00
2006,04,05,01,12,6.00
2006,04,05,01,13,6.00
2006,04,05,01,14,6.00
2006,04,05,01,15,6.10
2006,04,05,01,16,6.10
2006,04,05,01,17,6.10
2006,04,05,01,18,6.20
2006,04,05,01,19,6.20
2006,04,05,01,20,6.20
2006,04,05,01,21,6.20
2006,04,05,01,22,6.20
2006,04,05,01,23,6.20
2006,04,05,01,24,6.20
2006,04,05,01,25,6.30
2006,04,05,01,26,6.30
2006,04,05,01,27,6.20
2006,04,05,01,28,6.20
2006,04,05,01,29,6.20
2006,04,05,01,30,6.20
2006,04,05,01,31,6.30
2006,04,05,01,32,6.30
2006,04,05,01,33,6.30
2006,04,05,01,34,6.30
2006,04,05,01,35,6.30
2006,04,05,01,36,6.30
2006,04,05,01,37,6.30
2006,04,05,01,38,6.30
2006,04,05,01,39,6.30
2006,04,05,01,40,6.20
2006,04,05,01,41,6.20
2006,04,05,01,42,6.20
2006,04,05,01,43,6.20
2006,04,05,01,44,6.20
2006,04,05,01,45,6.10
2006,04,05,01,46,6.10
2006,04,05,01,47,6.10
2006,04,05,01,48,6.00
2006,04,05,01,49,6.00
2006,04,05,01,50,6.00
2006,04,05,01,51,6.00
2006,04,05,01,52,6.00
2006,04,05,01,53,6.00
2006,04,05,01,54,6.00
2006,04,05,01,55,6.00
2006,04,05,01,56,6.00
2006,04,05,01,57,6.00
2006,04,05,01,58,6.10
2006,04,05,01,59,6.10
2006,04,05,02,00,6.10
2006,04,05,02,01,6.10
2006,04,05,02,02,6.10
2006,04,05,02,03,6.10
2006,04,05,02,04,6.00
2006,04,05,02,05,6.00
2006,04,05,02,06,6.00
2006,04,05,02,07,6.00
2006,04,05,02,08,6.00
2006,04,05,02,09,6.00
2006,04,05,02,10,6.00
2006,04,05,02,11,6.00
2006,04,05,02,12,6.00
2006,04,05,02,13,6.00
2006,04,05,02,14,6.00
2006,04,05,02,15,6.00
2006,04,05,02,16,6.00
2006,04,05,02,17,6.00
2006,04,05,02,18,6.00
2006,04,05,02,19,6.00
2006,04,05,02,20,6.00
2006,04,05,02,21,6.00
2006,04,05,02,22,6.00
2006,04,05,02,23,6.00
2006,04,05,02,24,6.00
2006,04,05,02,25,6.00
2006,04,05,02,26,6.10
2006,04,05,02,27,6.20
2006,04,05,02,28,6.20
2006,04,05,02,29,6.20
2006,04,05,02,30,6.20
2006,04,05,02,31,6.20
2006,04,05,02,32,6.10
2006,04,05,02,33,6.10
2006,04,05,02,34,6.00
2006,04,05,02,35,6.00
2006,04,05,02,36,5.90
2006,04,05,02,37,5.90
2006,04,05,02,38,5.90
2006,04,05,02,39,5.90
2006,04,05,02,40,5.90
2006,04,05,02,41,5.90
2006,04,05,02,42,6.00
2006,04,05,02,43,6.00
2006,04,05,02,44,6.10
2006,04,05,02,45,6.10
2006,04,05,02,46,6.10
2006,04,05,02,47,6.10
2006,04,05,02,48,6.00
2006,04,05,02,49,6.00
2006,04,05,02,50,5.90
2006,04,05,02,51,5.80
2006,04,05,02,52,5.70
2006,04,05,02,53,5.80
2006,04,05,02,54,5.80
2006,04,05,02,55,5.80
2006,04,05,02,56,5.80
2006,04,05,02,57,5.80
2006,04,05,02,58,5.80
2006,04,05,02,59,5.80
2006,04,05,03,00,5.80
2006,04,05,03,01,5.80
2006,04,05,03,02,5.90
2006,04,05,03,03,5.90
2006,04,05,03,04,5.90
2006,04,05,03,05,5.90
2006,04,05,03,06,5.90
2006,04,05,03,07,5.90
2006,04,05,03,08,6.00
2006,04,05,03,09,5.90
2006,04,05,03,10,5.90
2006,04,05,03,11,5.80
2006,04,05,03,12,5.70
2006,04,05,03,13,5.70
2006,04,05,03,14,5.70
2006,04,05,03,15,5.60
2006,04,05,03,16,5.50
2006,04,05,03,17,5.50
2006,04,05,03,18,5.40
2006,04,05,03,19,5.30
2006,04,05,03,20,5.20
2006,04,05,03,21,5.10
2006,04,05,03,22,5.00
2006,04,05,03,23,4.90
2006,04,05,03,24,4.80
2006,04,05,03,25,4.70
2006,04,05,03,26,4.70
2006,04,05,03,27,4.60
2006,04,05,03,28,4.60
2006,04,05,03,29,4.60
2006,04,05,03,30,4.70
2006,04,05,03,31,4.60
2006,04,05,03,32,4.60
2006,04,05,03,33,4.60
2006,04,05,03,34,4.60
2006,04,05,03,35,4.60
2006,04,05,03,36,4.60
2006,04,05,03,37,4.60
2006,04,05,03,38,4.70
2006,04,05,03,39,4.80
2006,04,05,03,40,4.90
2006,04,05,03,41,5.00
2006,04,05,03,42,5.10
2006,04,05,03,43,5.10
2006,04,05,03,44,5.10
2006,04,05,03,45,5.10
2006,04,05,03,46,5.10
2006,04,05,03,47,5.10
2006,04,05,03,48,5.10
2006,04,05,03,49,5.10
2006,04,05,03,50,5.10
2006,04,05,03,51,5.10
2006,04,05,03,52,5.20
2006,04,05,03,53,5.10
2006,04,05,03,54,5.10
2006,04,05,03,55,5.10
2006,04,05,03,56,5.00
2006,04,05,03,57,4.90
2006,04,05,03,58,4.90
2006,04,05,03,59,4.90
2006,04,05,04,00,4.90
2006,04,05,04,01,4.90
2006,04,05,04,02,4.90
2006,04,05,04,03,4.90
2006,04,05,04,04,4.90
2006,04,05,04,05,4.90
2006,04,05,04,06,4.90
2006,04,05,04,07,4.90
2006,04,05,04,08,5.00
2006,04,05,04,09,5.10
2006,04,05,04,10,5.10
2006,04,05,04,11,5.10
2006,04,05,04,12,5.10
2006,04,05,04,13,5.10
2006,04,05,04,14,5.00
2006,04,05,04,15,4.90
2006,04,05,04,16,4.90
2006,04,05,04,17,4.80
2006,04,05,04,18,4.70
2006,04,05,04,19,4.60
2006,04,05,04,20,4.60
2006,04,05,04,21,4.60
2006,04,05,04,22,4.60
2006,04,05,04,23,4.60
2006,04,05,04,24,4.60
2006,04,05,04,25,4.60
2006,04,05,04,26,4.60
2006,04,05,04,27,4.60
2006,04,05,04,28,4.60
2006,04,05,04,29,4.50
2006,04,05,04,30,4.50
2006,04,05,04,31,4.50
2006,04,05,04,32,4.50
2006,04,05,04,33,4.50
2006,04,05,04,34,4.50
2006,04,05,04,35,4.50
2006,04,05,04,36,4.40
2006,04,05,04,37,4.40
2006,04,05,04,38,4.40
2006,04,05,04,39,4.40
2006,04,05,04,40,4.40
2006,04,05,04,41,4.40
2006,04,05,04,42,4.50
2006,04,05,04,43,4.50
2006,04,05,04,44,4.50
2006,04,05,04,45,4.50
2006,04,05,04,46,4.50
2006,04,05,04,47,4.50
2006,04,05,04,48,4.50
2006,04,05,04,49,4.50
2006,04,05,04,50,4.50
2006,04,05,04,51,4.50
2006,04,05,04,52,4.60
2006,04,05,04,53,4.60
2006,04,05,04,54,4.60
2006,04,05,04,55,4.50
2006,04,05,04,56,4.50
2006,04,05,04,57,4.60
2006,04,05,04,58,4.60
2006,04,05,04,59,4.50
2006,04,05,05,00,4.50
2006,04,05,05,01,4.40
2006,04,05,05,02,4.40
2006,04,05,05,03,4.40
2006,04,05,05,04,4.30
2006,04,05,05,05,4.30
2006,04,05,05,06,4.30
2006,04,05,05,07,4.40
2006,04,05,05,08,4.40
2006,04,05,05,09,4.50
2006,04,05,05,10,4.50
2006,04,05,05,11,4.50
2006,04,05,05,12,4.50
2006,04,05,05,13,4.50
2006,04,05,05,14,4.50
2006,04,05,05,15,4.60
2006,04,05,05,16,4.60
2006,04,05,05,17,4.60
2006,04,05,05,18,4.60
2006,04,05,05,19,4.60
2006,04,05,05,20,4.60
2006,04,05,05,21,4.60
2006,04,05,05,22,4.60
2006,04,05,05,23,4.60
2006,04,05,05,24,4.60
2006,04,05,05,25,4.60
2006,04,05,05,26,4.60
2006,04,05,05,27,4.60
2006,04,05,05,28,4.60
2006,04,05,05,29,4.60
2006,04,05,05,30,4.60
2006,04,05,05,31,4.60
2006,04,05,05,32,4.60
2006,04,05,05,33,4.60
2006,04,05,05,34,4.60
2006,04,05,05,35,4.60
2006,04,05,05,36,4.50
2006,04,05,05,37,4.50
2006,04,05,05,38,4.50
2006,04,05,05,39,4.40
2006,04,05,05,40,4.40
2006,04,05,05,41,4.30
2006,04,05,05,42,4.20
2006,04,05,05,43,4.20
2006,04,05,05,44,4.10
2006,04,05,05,45,4.10
2006,04,05,05,46,4.00
2006,04,05,05,47,4.00
2006,04,05,05,48,4.00
2006,04,05,05,49,4.00
2006,04,05,05,50,3.90
2006,04,05,05,51,3.90
2006,04,05,05,52,4.00
2006,04,05,05,53,4.00
2006,04,05,05,54,4.00
2006,04,05,05,55,4.10
2006,04,05,05,56,4.10
2006,04,05,05,57,4.20
2006,04,05,05,58,4.20
2006,04,05,05,59,4.30
2006,04,05,06,00,4.40
2006,04,05,06,01,4.50
2006,04,05,06,02,4.50
2006,04,05,06,03,4.60
2006,04,05,06,04,4.60
2006,04,05,06,05,4.60
2006,04,05,06,06,4.60
2006,04,05,06,07,4.50
2006,04,05,06,08,4.40
2006,04,05,06,09,4.30
2006,04,05,06,10,4.30
2006,04,05,06,11,4.30
2006,04,05,06,12,4.30
2006,04,05,06,13,4.30
2006,04,05,06,14,4.30
2006,04,05,06,15,4.40
2006,04,05,06,16,4.40
2006,04,05,06,17,4.40
2006,04,05,06,18,4.30
2006,04,05,06,19,4.30
2006,04,05,06,20,4.40
2006,04,05,06,21,4.40
2006,04,05,06,22,4.40
2006,04,05,06,23,4.40
2006,04,05,06,24,4.50
2006,04,05,06,25,4.50
2006,04,05,06,26,4.50
2006,04,05,06,27,4.50
2006,04,05,06,28,4.60
2006,04,05,06,29,4.50
2006,04,05,06,30,4.50
2006,04,05,06,31,4.50
2006,04,05,06,32,4.50
2006,04,05,06,33,4.50
2006,04,05,06,34,4.50
2006,04,05,06,35,4.50
2006,04,05,06,36,4.40
2006,04,05,06,37,4.20
2006,04,05,06,38,4.00
2006,04,05,06,39,3.80
2006,04,05,06,40,3.70
2006,04,05,06,41,3.60
2006,04,05,06,42,3.50
2006,04,05,06,43,3.40
2006,04,05,06,44,3.40
2006,04,05,06,45,3.40
2006,04,05,06,46,3.40
2006,04,05,06,47,3.40
2006,04,05,06,48,3.40
2006,04,05,06,49,3.40
2006,04,05,06,50,3.50
2006,04,05,06,51,3.50
2006,04,05,06,52,3.40
2006,04,05,06,53,3.40
2006,04,05,06,54,3.40
2006,04,05,06,55,3.40
2006,04,05,06,56,3.40
2006,04,05,06,57,3.40
2006,04,05,06,58,3.40
2006,04,05,06,59,3.40
2006,04,05,07,00,3.40
2006,04,05,07,01,3.40
2006,04,05,07,02,3.40
2006,04,05,07,03,3.40
2006,04,05,07,04,3.50
2006,04,05,07,05,3.50
2006,04,05,07,06,3.50
2006,04,05,07,07,3.50
2006,04,05,07,08,3.50
2006,04,05,07,09,3.60
2006,04,05,07,10,3.60
2006,04,05,07,11,3.70
2006,04,05,07,12,3.70
2006,04,05,07,13,3.80
2006,04,05,07,14,3.80
2006,04,05,07,15,3.80
2006,04,05,07,16,3.80
2006,04,05,07,17,3.80
2006,04,05,07,18,3.80
2006,04,05,07,19,3.90
2006,04,05,07,20,4.00
2006,04,05,07,21,4.00
2006,04,05,07,22,4.10
2006,04,05,07,23,4.20
2006,04,05,07,24,4.40
2006,04,05,07,25,4.50
2006,04,05,07,26,4.50
2006,04,05,07,27,4.60
2006,04,05,07,28,4.70
2006,04,05,07,29,4.80
2006,04,05,07,30,4.90
2006,04,05,07,31,5.00
2006,04,05,07,32,5.10
2006,04,05,07,33,5.10
2006,04,05,07,34,5.10
2006,04,05,07,35,5.30
2006,04,05,07,36,5.40
2006,04,05,07,37,5.50
2006,04,05,07,38,5.50
2006,04,05,07,39,5.60
2006,04,05,07,40,5.70
2006,04,05,07,41,5.80
2006,04,05,07,42,5.80
2006,04,05,07,43,5.90
2006,04,05,07,44,5.90
2006,04,05,07,45,6.00
2006,04,05,07,46,6.00
2006,04,05,07,47,6.00
2006,04,05,07,48,6.10
2006,04,05,07,49,6.10
2006,04,05,07,50,6.20
2006,04,05,07,51,6.20
2006,04,05,07,52,6.30
2006,04,05,07,53,6.40
2006,04,05,07,54,6.40
2006,04,05,07,55,6.60
2006,04,05,07,56,6.60
2006,04,05,07,57,6.60
2006,04,05,07,58,6.70
2006,04,05,07,59,6.80
2006,04,05,08,00,6.80
2006,04,05,08,01,6.90
2006,04,05,08,02,7.00
2006,04,05,08,03,7.10
2006,04,05,08,04,7.20
2006,04,05,08,05,7.30
2006,04,05,08,06,7.40
2006,04,05,08,07,7.40
2006,04,05,08,08,7.50
2006,04,05,08,09,7.50
2006,04,05,08,10,7.50
2006,04,05,08,11,7.50
2006,04,05,08,12,7.50
2006,04,05,08,13,7.40
2006,04,05,08,14,7.40
2006,04,05,08,15,7.40
2006,04,05,08,16,7.40
2006,04,05,08,17,7.40
2006,04,05,08,18,7.40
2006,04,05,08,19,7.50
2006,04,05,08,20,7.60
2006,04,05,08,21,7.70
2006,04,05,08,22,7.70
2006,04,05,08,23,7.80
2006,04,05,08,24,7.80
2006,04,05,08,25,7.90
2006,04,05,08,26,8.00
2006,04,05,08,27,8.00
2006,04,05,08,28,8.00
2006,04,05,08,29,8.10
2006,04,05,08,30,8.20
2006,04,05,08,31,8.20
2006,04,05,08,32,8.20
2006,04,05,08,33,8.20
2006,04,05,08,34,8.30
2006,04,05,08,35,8.30
2006,04,05,08,36,8.40
2006,04,05,08,37,8.50
2006,04,05,08,38,8.50
2006,04,05,08,39,8.60
2006,04,05,08,40,8.60
2006,04,05,08,41,8.60
2006,04,05,08,42,8.60
2006,04,05,08,43,8.70
2006,04,05,08,44,8.70
2006,04,05,08,45,8.70
2006,04,05,08,46,8.70
2006,04,05,08,47,8.70
2006,04,05,08,48,8.70
2006,04,05,08,49,8.70
2006,04,05,08,50,8.70
2006,04,05,08,51,8.70
2006,04,05,08,52,8.70
2006,04,05,08,53,8.90
2006,04,05,08,54,9.00
2006,04,05,08,55,9.00
2006,04,05,08,56,9.00
2006,04,05,08,57,9.10
2006,04,05,08,58,9.10
2006,04,05,08,59,9.20
2006,04,05,09,00,9.20
2006,04,05,09,01,9.20
2006,04,05,09,02,9.20
2006,04,05,09,03,9.10
2006,04,05,09,04,9.10
2006,04,05,09,05,9.10
2006,04,05,09,06,9.10
2006,04,05,09,07,9.00
2006,04,05,09,08,9.00
2006,04,05,09,09,9.10
2006,04,05,09,10,9.10
2006,04,05,09,11,9.20
2006,04,05,09,12,9.20
2006,04,05,09,13,9.10
2006,04,05,09,14,9.10
2006,04,05,09,15,9.10
2006,04,05,09,16,9.10
2006,04,05,09,17,9.10
2006,04,05,09,18,9.20
2006,04,05,09,19,9.30
2006,04,05,09,20,9.30
2006,04,05,09,21,9.40
2006,04,05,09,22,9.50
2006,04,05,09,23,9.50
2006,04,05,09,24,9.50
2006,04,05,09,25,9.60
2006,04,05,09,26,9.50
2006,04,05,09,27,9.50
2006,04,05,09,28,9.50
2006,04,05,09,29,9.50
2006,04,05,09,30,9.50
2006,04,05,09,31,9.50
2006,04,05,09,32,9.60
2006,04,05,09,33,9.60
2006,04,05,09,34,9.70
2006,04,05,09,35,9.70
2006,04,05,09,36,9.70
2006,04,05,09,37,9.70
2006,04,05,09,38,9.70
2006,04,05,09,39,9.70
2006,04,05,09,40,9.70
2006,04,05,09,41,9.70
2006,04,05,09,42,9.70
2006,04,05,09,43,9.70
2006,04,05,09,44,9.70
2006,04,05,09,45,9.70
2006,04,05,09,46,9.70
2006,04,05,09,47,9.80
2006,04,05,09,48,10.00
2006,04,05,09,49,10.10
2006,04,05,09,50,10.10
2006,04,05,09,51,10.10
2006,04,05,09,52,10.10
2006,04,05,09,53,10.10
2006,04,05,09,54,10.10
2006,04,05,09,55,10.20
2006,04,05,09,56,10.20
2006,04,05,09,57,10.20
2006,04,05,09,58,10.20
2006,04,05,09,59,10.20
2006,04,05,10,00,10.20
2006,04,05,10,01,10.10
2006,04,05,10,02,10.10
2006,04,05,10,03,10.10
2006,04,05,10,04,10.10
2006,04,05,10,05,10.10
2006,04,05,10,06,10.10
2006,04,05,10,07,10.10
2006,04,05,10,08,10.10
2006,04,05,10,09,10.20
2006,04,05,10,10,10.30
2006,04,05,10,11,10.40
2006,04,05,10,12,10.40
2006,04,05,10,13,10.40
2006,04,05,10,14,10.40
2006,04,05,10,15,10.40
2006,04,05,10,16,10.30
2006,04,05,10,17,10.30
2006,04,05,10,18,10.30
2006,04,05,10,19,10.30
2006,04,05,10,20,10.30
2006,04,05,10,21,10.30
2006,04,05,10,22,10.30
2006,04,05,10,23,10.40
2006,04,05,10,24,10.40
2006,04,05,10,25,10.40
2006,04,05,10,26,10.50
2006,04,05,10,27,10.60
2006,04,05,10,28,10.60
2006,04,05,10,29,10.70
2006,04,05,10,30,10.70
2006,04,05,10,31,10.80
2006,04,05,10,32,10.80
2006,04,05,10,33,10.80
2006,04,05,10,34,10.80
2006,04,05,10,35,10.70
2006,04,05,10,36,10.70
2006,04,05,10,37,10.70
2006,04,05,10,38,10.80
2006,04,05,10,39,10.80
2006,04,05,10,40,10.90
2006,04,05,10,41,10.90
2006,04,05,10,42,10.90
2006,04,05,10,43,10.90
2006,04,05,10,44,10.90
2006,04,05,10,45,10.90
2006,04,05,10,46,10.90
2006,04,05,10,47,10.90
2006,04,05,10,48,10.90
2006,04,05,10,49,10.90
2006,04,05,10,50,10.90
2006,04,05,10,51,11.00
2006,04,05,10,52,11.10
2006,04,05,10,53,11.20
2006,04,05,10,54,11.20
2006,04,05,10,55,11.20
2006,04,05,10,56,11.20
2006,04,05,10,57,11.30
2006,04,05,10,58,11.40
2006,04,05,10,59,11.40
2006,04,05,11,00,11.40
2006,04,05,11,01,11.50
2006,04,05,11,02,11.60
2006,04,05,11,03,11.70
2006,04,05,11,04,11.70
2006,04,05,11,05,11.80
2006,04,05,11,06,11.80
2006,04,05,11,07,11.80
2006,04,05,11,08,11.90
2006,04,05,11,09,12.10
2006,04,05,11,10,12.10
2006,04,05,11,11,11.90
2006,04,05,11,12,11.90
2006,04,05,11,13,11.90
2006,04,05,11,14,11.90
2006,04,05,11,15,11.90
2006,04,05,11,16,11.80
2006,04,05,11,17,11.80
2006,04,05,11,18,11.90
2006,04,05,11,19,11.90
2006,04,05,11,20,11.80
2006,04,05,11,21,11.80
2006,04,05,11,22,11.80
2006,04,05,11,23,11.80
2006,04,05,11,24,11.90
2006,04,05,11,25,11.90
2006,04,05,11,26,11.90
2006,04,05,11,27,12.00
2006,04,05,11,28,12.10
2006,04,05,11,29,12.20
2006,04,05,11,30,12.20
2006,04,05,11,31,12.30
2006,04,05,11,32,12.30
2006,04,05,11,33,12.30
2006,04,05,11,34,12.30
2006,04,05,11,35,12.40
2006,04,05,11,36,12.30
2006,04,05,11,37,12.30
2006,04,05,11,38,12.20
2006,04,05,11,39,12.10
2006,04,05,11,40,12.10
2006,04,05,11,41,12.20
2006,04,05,11,42,12.20
2006,04,05,11,43,12.20
2006,04,05,11,44,12.30
2006,04,05,11,45,12.30
2006,04,05,11,46,12.30
2006,04,05,11,47,12.50
2006,04,05,11,48,12.60
2006,04,05,11,49,12.70
2006,04,05,11,50,12.80
2006,04,05,11,51,12.80
2006,04,05,11,52,12.80
2006,04,05,11,53,12.60
2006,04,05,11,54,12.40
2006,04,05,11,55,12.30
2006,04,05,11,56,12.30
2006,04,05,11,57,12.10
2006,04,05,11,58,11.80
2006,04,05,11,59,11.70
2006,04,05,12,00,11.40
2006,04,05,12,01,11.30
2006,04,05,12,02,11.30
2006,04,05,12,03,11.30
2006,04,05,12,04,11.30
2006,04,05,12,05,11.40
2006,04,05,12,06,11.30
2006,04,05,12,07,11.40
2006,04,05,12,08,11.40
2006,04,05,12,09,11.40
2006,04,05,12,10,11.40
2006,04,05,12,11,11.50
2006,04,05,12,12,11.60
2006,04,05,12,13,11.70
2006,04,05,12,14,11.80
2006,04,05,12,15,11.70
2006,04,05,12,16,11.60
2006,04,05,12,17,11.50
2006,04,05,12,18,11.50
2006,04,05,12,19,11.40
2006,04,05,12,20,11.40
2006,04,05,12,21,11.40
2006,04,05,12,22,11.30
2006,04,05,12,23,11.20
2006,04,05,12,24,11.30
2006,04,05,12,25,11.40
2006,04,05,12,26,11.40
2006,04,05,12,27,11.50
2006,04,05,12,28,11.60
2006,04,05,12,29,11.50
2006,04,05,12,30,11.40
2006,04,05,12,31,11.40
2006,04,05,12,32,11.50
2006,04,05,12,33,11.70
2006,04,05,12,34,11.80
2006,04,05,12,35,12.00
2006,04,05,12,36,12.10
2006,04,05,12,37,12.20
2006,04,05,12,38,12.30
2006,04,05,12,39,12.30
2006,04,05,12,40,12.20
2006,04,05,12,41,12.30
2006,04,05,12,42,12.30
2006,04,05,12,43,12.30
2006,04,05,12,44,12.20
2006,04,05,12,45,12.20
2006,04,05,12,46,12.20
2006,04,05,12,47,12.20
2006,04,05,12,48,12.10
2006,04,05,12,49,12.10
2006,04,05,12,50,12.10
2006,04,05,12,51,12.20
2006,04,05,12,52,12.40
2006,04,05,12,53,12.60
2006,04,05,12,54,12.70
2006,04,05,12,55,12.70
2006,04,05,12,56,12.90
2006,04,05,12,57,13.10
2006,04,05,12,58,13.20
2006,04,05,12,59,13.40
2006,04,05,13,00,13.50
2006,04,05,13,01,13.60
2006,04,05,13,02,13.70
2006,04,05,13,03,13.80
2006,04,05,13,04,13.80
2006,04,05,13,05,13.80
2006,04,05,13,06,13.80
2006,04,05,13,07,13.80
2006,04,05,13,08,13.80
2006,04,05,13,09,13.90
2006,04,05,13,10,13.90
2006,04,05,13,11,13.90
2006,04,05,13,12,13.90
2006,04,05,13,13,14.00
2006,04,05,13,14,14.10
2006,04,05,13,15,14.10
2006,04,05,13,16,14.30
2006,04,05,13,17,14.50
2006,04,05,13,18,14.50
2006,04,05,13,19,14.40
2006,04,05,13,20,14.40
2006,04,05,13,21,14.30
2006,04,05,13,22,14.20
2006,04,05,13,23,14.30
2006,04,05,13,24,14.40
2006,04,05,13,25,14.50
2006,04,05,13,26,14.60
2006,04,05,13,27,14.60
2006,04,05,13,28,15.00
2006,04,05,13,29,15.40
2006,04,05,13,30,15.70
2006,04,05,13,31,15.80
2006,04,05,13,32,15.80
2006,04,05,13,33,15.70
2006,04,05,13,34,15.60
2006,04,05,13,35,15.60
2006,04,05,13,36,15.50
2006,04,05,13,37,15.60
2006,04,05,13,38,15.70
2006,04,05,13,39,15.80
2006,04,05,13,40,16.10
2006,04,05,13,41,16.20
2006,04,05,13,42,16.20
2006,04,05,13,43,16.20
2006,04,05,13,44,16.10
2006,04,05,13,45,16.00
2006,04,05,13,46,15.90
2006,04,05,13,47,15.90
2006,04,05,13,48,15.60
2006,04,05,13,49,15.70
2006,04,05,13,50,15.60
2006,04,05,13,51,15.50
2006,04,05,13,52,15.60
2006,04,05,13,53,15.90
2006,04,05,13,54,16.00
2006,04,05,13,55,16.10
2006,04,05,13,56,16.30
2006,04,05,13,57,16.50
2006,04,05,13,58,16.70
2006,04,05,13,59,16.90
2006,04,05,14,00,16.90
2006,04,05,14,01,16.80
2006,04,05,14,02,16.80
2006,04,05,14,03,16.70
2006,04,05,14,04,16.70
2006,04,05,14,05,16.70
2006,04,05,14,06,16.70
2006,04,05,14,07,16.70
2006,04,05,14,08,16.70
2006,04,05,14,09,16.70
2006,04,05,14,10,16.70
2006,04,05,14,11,16.70
2006,04,05,14,12,16.70
2006,04,05,14,13,16.60
2006,04,05,14,14,16.50
2006,04,05,14,15,16.40
2006,04,05,14,16,16.40
2006,04,05,14,17,16.40
2006,04,05,14,18,16.40
2006,04,05,14,19,16.40
2006,04,05,14,20,16.40
2006,04,05,14,21,16.20
2006,04,05,14,22,16.20
2006,04,05,14,23,16.20
2006,04,05,14,24,16.20
2006,04,05,14,25,16.20
2006,04,05,14,26,16.30
2006,04,05,14,27,16.20
2006,04,05,14,28,16.20
2006,04,05,14,29,16.20
2006,04,05,14,30,16.30
2006,04,05,14,31,16.40
2006,04,05,14,32,16.50
2006,04,05,14,33,16.60
2006,04,05,14,34,16.70
2006,04,05,14,35,16.80
2006,04,05,14,36,16.90
2006,04,05,14,37,16.90
2006,04,05,14,38,16.90
2006,04,05,14,39,16.90
2006,04,05,14,40,16.90
2006,04,05,14,41,16.90
2006,04,05,14,42,17.00
2006,04,05,14,43,17.10
2006,04,05,14,44,17.20
2006,04,05,14,45,17.20
2006,04,05,14,46,17.30
2006,04,05,14,47,17.30
2006,04,05,14,48,17.30
2006,04,05,14,49,17.40
2006,04,05,14,50,17.30
2006,04,05,14,51,17.30
2006,04,05,14,52,17.10
2006,04,05,14,53,16.90
2006,04,05,14,54,16.80
2006,04,05,14,55,16.80
2006,04,05,14,56,16.70
2006,04,05,14,57,16.50
2006,04,05,14,58,16.40
2006,04,05,14,59,16.60
2006,04,05,15,00,16.70
2006,04,05,15,01,16.70
2006,04,05,15,02,16.70
2006,04,05,15,03,16.70
2006,04,05,15,04,16.80
2006,04,05,15,05,17.00
2006,04,05,15,06,17.00
2006,04,05,15,07,17.20
2006,04,05,15,08,17.30
2006,04,05,15,09,17.40
2006,04,05,15,10,17.40
2006,04,05,15,11,17.30
2006,04,05,15,12,17.10
2006,04,05,15,13,17.20
2006,04,05,15,14,17.30
2006,04,05,15,15,17.40
2006,04,05,15,16,17.50
2006,04,05,15,17,17.50
2006,04,05,15,18,17.60
2006,04,05,15,19,17.70
2006,04,05,15,20,17.80
2006,04,05,15,21,17.80
2006,04,05,15,22,17.80
2006,04,05,15,23,17.80
2006,04,05,15,24,17.90
2006,04,05,15,25,17.90
2006,04,05,15,26,17.90
2006,04,05,15,27,18.10
2006,04,05,15,28,18.10
2006,04,05,15,29,18.20
2006,04,05,15,30,18.20
2006,04,05,15,31,18.20
2006,04,05,15,32,18.20
2006,04,05,15,33,18.10
2006,04,05,15,34,18.00
2006,04,05,15,35,17.90
2006,04,05,15,36,18.10
2006,04,05,15,37,18.20
2006,04,05,15,38,18.30
2006,04,05,15,39,18.30
2006,04,05,15,40,18.30
2006,04,05,15,41,18.30
2006,04,05,15,42,18.20
2006,04,05,15,43,18.20
2006,04,05,15,44,18.00
2006,04,05,15,45,17.70
2006,04,05,15,46,17.60
2006,04,05,15,47,17.70
2006,04,05,15,48,17.70
2006,04,05,15,49,17.80
2006,04,05,15,50,17.90
2006,04,05,15,51,18.00
2006,04,05,15,52,18.20
2006,04,05,15,53,18.30
2006,04,05,15,54,18.30
2006,04,05,15,55,18.30
2006,04,05,15,56,18.40
2006,04,05,15,57,18.60
2006,04,05,15,58,18.70
2006,04,05,15,59,18.80
2006,04,05,16,00,18.90
2006,04,05,16,01,19.10
2006,04,05,16,02,19.10
2006,04,05,16,03,19.20
2006,04,05,16,04,19.20
2006,04,05,16,05,19.20
2006,04,05,16,06,19.10
2006,04,05,16,07,19.10
2006,04,05,16,08,19.00
2006,04,05,16,09,19.10
2006,04,05,16,10,19.10
2006,04,05,16,11,19.20
2006,04,05,16,12,19.20
2006,04,05,16,13,19.40
2006,04,05,16,14,19.40
2006,04,05,16,15,19.50
2006,04,05,16,16,19.50
2006,04,05,16,17,19.40
2006,04,05,16,18,19.30
2006,04,05,16,19,19.10
2006,04,05,16,20,19.10
2006,04,05,16,21,19.20
2006,04,05,16,22,19.40
2006,04,05,16,23,19.50
2006,04,05,16,24,19.60
2006,04,05,16,25,19.70
2006,04,05,16,26,19.70
2006,04,05,16,27,19.60
2006,04,05,16,28,19.60
2006,04,05,16,29,19.50
2006,04,05,16,30,19.40
2006,04,05,16,31,19.40
2006,04,05,16,32,19.40
2006,04,05,16,33,19.20
2006,04,05,16,34,19.10
2006,04,05,16,35,18.90
2006,04,05,16,36,18.90
2006,04,05,16,37,18.90
2006,04,05,16,38,18.90
2006,04,05,16,39,18.90
2006,04,05,16,40,18.90
2006,04,05,16,41,19.00
2006,04,05,16,42,19.10
2006,04,05,16,43,19.10
2006,04,05,16,44,19.10
2006,04,05,16,45,19.10
2006,04,05,16,46,19.10
2006,04,05,16,47,19.30
2006,04,05,16,48,19.30
2006,04,05,16,49,19.30
2006,04,05,16,50,19.30
2006,04,05,16,51,19.30
2006,04,05,16,52,19.30
2006,04,05,16,53,19.20
2006,04,05,16,54,19.10
2006,04,05,16,55,19.10
2006,04,05,16,56,19.10
2006,04,05,16,57,19.10
2006,04,05,16,58,19.10
2006,04,05,16,59,19.20
2006,04,05,17,00,19.30
2006,04,05,17,01,19.40
2006,04,05,17,02,19.40
2006,04,05,17,03,19.40
2006,04,05,17,04,19.40
2006,04,05,17,05,19.50
2006,04,05,17,06,19.50
2006,04,05,17,07,19.40
2006,04,05,17,08,19.30
2006,04,05,17,09,19.20
2006,04,05,17,10,19.10
2006,04,05,17,11,19.10
2006,04,05,17,12,19.10
2006,04,05,17,13,19.00
2006,04,05,17,14,19.00
2006,04,05,17,15,19.10
2006,04,05,17,16,19.20
2006,04,05,17,17,19.10
2006,04,05,17,18,19.10
2006,04,05,17,19,19.10
2006,04,05,17,20,19.10
2006,04,05,17,21,19.10
2006,04,05,17,22,19.10
2006,04,05,17,23,19.00
2006,04,05,17,24,18.90
2006,04,05,17,25,18.90
2006,04,05,17,26,18.80
2006,04,05,17,27,18.80
2006,04,05,17,28,18.70
2006,04,05,17,29,18.60
2006,04,05,17,30,18.60
2006,04,05,17,31,18.50
2006,04,05,17,32,18.50
2006,04,05,17,33,18.50
2006,04,05,17,34,18.50
2006,04,05,17,35,18.50
2006,04,05,17,36,18.30
2006,04,05,17,37,18.30
2006,04,05,17,38,18.30
2006,04,05,17,39,18.30
2006,04,05,17,40,18.20
2006,04,05,17,41,18.30
2006,04,05,17,42,18.30
2006,04,05,17,43,18.30
2006,04,05,17,44,18.20
2006,04,05,17,45,18.20